User: anonymous
Location: Caltech
(34.1382°N, 118.1253°W)
Time: 10:27:37
(UTC-07:00)
Language:

CZ-2C R/B - Orbit

View from above orbital plane
View from above orbital plane
View from above satellite
View from above satellite

Ground track
Ground track

The orbit data is extracted from the following two-line orbital elements,

1 36089U 09061B   14258.76285824  .00000143  00000-0  47548-4 0  4225
2 36089 098.0996 288.1443 0081389 260.1790 230.2747 14.49217384256059
Epoch (UTC): 15 September 2014 18:18:30
Eccentricity: 0.0081389
inclination: 98.0996°
perigee height: 670 km
apogee height: 786 km
right ascension of ascending node: 288.1443°
argument of perigee: 260.1790°
revolutions per day: 14.49217384
mean anomaly at epoch: 230.2747°
orbit number at epoch: 25605

The dashed part of the orbit path shows where the satellite is in the earth's shadow,  

DLR